"Pseudo-MPEC" for JdLk1J8

Created 2024 May 21 12:22:06 UT using Find_Orb

Click here for an explanation of pseudo-MPECs

 
 Astrometry: 
     JdLk1J8*!C2024 05 09T9ME]ZNk\!4QNAstrometryWDP81@_roSUiAOvredacted;ZTH5GW84
     JdLk1J8 !C2024 05 09O4+ccPQGuuQg-qL%@Z5dUd`6b%flmKU0click!UO?,P;here('\iW84
     JdLk1J8 !C2024 05 09ycH?C])RGDBf`G,,oWb%2q.Q$^F`f))?lQ8i5BA\@dZe.gZ?):QHW84
     JdLk1J8 !C2024 05 09]X-)rsf!82SPUhLQ$Fo'[Z5o/+/:_Ww[j7!forl)4yZCA`tE-iLBW84
     JdLk1J8 !C2024 05 09JDsKO(eh9=,2xw#yC-gBA1c'+bhu5dyQ.LV7.AG^f36=7j`D1\?BW84
     JdLk1J8 !C2024 05 09y(bCWw-0(\^SjYexplanationYkrF%.=R$:d:3,:3hVVESdU57s3W84

Station data:
(W84) Cerro Tololo-DECam  (S30.169594 W70.806420)  Chile.  Observer F. Valdes.
    Measurer S. Deen. 4.0-m reflector + CCD.

Orbital elements:  JdLk1J8
   Perihelion 2024 Aug 26.08756 +/- 84.7 TT =  2:06:05 (JD 2460548.58756)
Epoch 2024 May  9.0 TT = JDT 2460439.5   Earth MOID: 0.2068   Ve: 0.0481
M 254.47734490 +/- 100              (J2000 ecliptic)             AutoNEOCP
n   0.96732069 +/- 0.797            Peri.  325.53812 +/- 80
a   1.01256379 +/- 0.556            Node    19.77588 +/- 12
e   0.3544887 +/- 0.22              Incl.   32.76919 +/- 43
P   1.02/372.15d           H 21.00  G  0.15   U 12.6  SR
q 0.65362133 +/- 0.478    Q 1.37150626 +/- 19.7
From 6 observations 2024 May 9 (57.2 min); mean residual 0".14
Residuals in arcseconds: 
240509 W84  .21+  .08-    240509 W84  .31-  .01-    240509 W84  .05+  .03-    
240509 W84  .15+  .03+    240509 W84  .22-  .09+    240509 W84  .13+  .00     

Ephemerides (geocentric):
Date (UTC) HH   RA             Dec           delta  r     elong  mag " sig PA
---- --------  ------------   ------------  ------ ------ -----  --- --------
2024 05 21 12  09 43 45.037   -04 32 15.61  .55614 1.1484  89.2 22.2 185' 160
2024 05 21 13  09 43 43.339   -04 33 33.39  .55637 1.1482  89.2 22.2 186' 160
2024 05 21 14  09 43 41.646   -04 34 51.13  .55659 1.1480  89.2 22.2 188' 160
2024 05 21 15  09 43 39.958   -04 36 08.82  .55682 1.1478  89.1 22.2 189' 160
2024 05 21 16  09 43 38.274   -04 37 26.48  .55704 1.1476  89.1 22.2 191' 160
2024 05 21 17  09 43 36.595   -04 38 44.09  .55727 1.1474  89.1 22.2 192' 160
2024 05 21 18  09 43 34.922   -04 40 01.65  .55749 1.1471  89.0 22.2 194' 160
2024 05 21 19  09 43 33.253   -04 41 19.18  .55772 1.1469  89.0 22.2 195' 160
2024 05 21 20  09 43 31.588   -04 42 36.66  .55794 1.1467  88.9 22.2 197' 160
2024 05 21 21  09 43 29.929   -04 43 54.10  .55817 1.1465  88.9 22.2 199' 160
2024 05 21 22  09 43 28.274   -04 45 11.49  .55839 1.1463  88.9 22.2 200' 160
2024 05 21 23  09 43 26.625   -04 46 28.85  .55862 1.1461  88.8 22.2 202' 160
2024 05 22 00  09 43 24.979   -04 47 46.16  .55884 1.1459  88.8 22.2 203' 160
2024 05 22 01  09 43 23.339   -04 49 03.43  .55907 1.1457  88.8 22.2 205' 160
2024 05 22 02  09 43 21.704   -04 50 20.65  .55929 1.1455  88.7 22.2 207' 160
2024 05 22 03  09 43 20.073   -04 51 37.84  .55951 1.1453  88.7 22.2 209' 160
2024 05 22 04  09 43 18.447   -04 52 54.98  .55974 1.1451  88.6 22.2 210' 160
2024 05 22 05  09 43 16.825   -04 54 12.08  .55996 1.1449  88.6 22.2 212' 160
2024 05 22 06  09 43 15.209   -04 55 29.14  .56019 1.1447  88.6 22.2 214' 160
2024 05 22 07  09 43 13.596   -04 56 46.15  .56041 1.1445  88.5 22.2 216' 160
2024 05 22 08  09 43 11.989   -04 58 03.13  .56063 1.1442  88.5 22.2 217' 161
2024 05 22 09  09 43 10.386   -04 59 20.06  .56086 1.1440  88.5 22.3 219' 161
2024 05 22 10  09 43 08.788   -05 00 36.95  .56108 1.1438  88.4 22.3 221' 161
2024 05 22 11  09 43 07.195   -05 01 53.80  .56130 1.1436  88.4 22.3 223' 161
2024 05 22 12  09 43 05.606   -05 03 10.60  .56153 1.1434  88.3 22.3 225' 161
2024 05 22 13  09 43 04.022   -05 04 27.37  .56175 1.1432  88.3 22.3 227' 161
2024 05 22 14  09 43 02.443   -05 05 44.09  .56197 1.1430  88.3 22.3 229' 161
2024 05 22 15  09 43 00.868   -05 07 00.77  .56220 1.1428  88.2 22.3 231' 161
2024 05 22 16  09 42 59.297   -05 08 17.41  .56242 1.1426  88.2 22.3 233' 161
2024 05 22 17  09 42 57.732   -05 09 34.01  .56264 1.1424  88.2 22.3 235' 161
2024 05 22 18  09 42 56.170   -05 10 50.57  .56286 1.1422  88.1 22.3 237' 161
2024 05 22 19  09 42 54.614   -05 12 07.08  .56309 1.1420  88.1 22.3 239' 161
2024 05 22 20  09 42 53.062   -05 13 23.56  .56331 1.1417  88.1 22.3 241' 161
2024 05 22 21  09 42 51.514   -05 14 39.99  .56353 1.1415  88.0 22.3 243' 161
2024 05 22 22  09 42 49.971   -05 15 56.39  .56375 1.1413  88.0 22.3 245' 161
2024 05 22 23  09 42 48.432   -05 17 12.74  .56397 1.1411  87.9 22.3 247' 161
2024 05 23 00  09 42 46.898   -05 18 29.05  .56419 1.1409  87.9 22.3 250' 161
2024 05 23 01  09 42 45.369   -05 19 45.32  .56442 1.1407  87.9 22.3 252' 161
2024 05 23 02  09 42 43.844   -05 21 01.55  .56464 1.1405  87.8 22.3 254' 161
2024 05 23 03  09 42 42.323   -05 22 17.74  .56486 1.1403  87.8 22.3 256' 161
2024 05 23 04  09 42 40.807   -05 23 33.88  .56508 1.1401  87.8 22.3 259' 161
2024 05 23 05  09 42 39.295   -05 24 49.99  .56530 1.1399  87.7 22.3 261' 161
2024 05 23 06  09 42 37.788   -05 26 06.06  .56552 1.1397  87.7 22.3 263' 161
2024 05 23 07  09 42 36.285   -05 27 22.08  .56574 1.1394  87.7 22.3 266' 161
2024 05 23 08  09 42 34.787   -05 28 38.07  .56596 1.1392  87.6 22.3 268' 161
2024 05 23 09  09 42 33.292   -05 29 54.01  .56619 1.1390  87.6 22.3 271' 161
2024 05 23 10  09 42 31.803   -05 31 09.92  .56641 1.1388  87.5 22.3 273' 161
2024 05 23 11  09 42 30.317   -05 32 25.78  .56663 1.1386  87.5 22.3 276' 161